Location: Ferma
(41.9500°N, 44.5167°E)
Time: 03:35:19
(UTC+00:00)

NOSS 2-3 (D) - Pass Details

Date: 01 June 2022
Orbit: 536 x 1674 km, 63.3° (Epoch: 02 June)

Event Time Altitude Azimuth Distance (km) Brightness Sun altitude
Rises 19:52:49 0° 319° (NW) 3,600 8.5 -24.1°
Reaches altitude 10° 19:55:10 10° 314° (NW) 2,800 7.7 -24.2°
Maximum altitude 20:01:38 50° 241° (WSW) 1,525 5.3 -24.5°
Enters shadow 20:04:02 39° 197° (SSW) 1,851 5.5 -24.6°
